Location: Dana
(41.8364°N, 106.7042°W)
Time: 12:02:41
(UTC+00:00)

ISS - Pass Details

Date: 24 April 2026
Orbit: 414 x 424 km, 51.6° (Epoch: 12 May)

Event Time Altitude Azimuth Distance (km) Brightness Sun altitude
Exits shadow 11:16:11 - 287° (WNW) 1,625 -1.2 -10.5°
Reaches altitude 10° 11:16:34 10° 291° (WNW) 1,498 -1.3 -10.4°
Maximum altitude 11:19:14 21° 343° (NNW) 993 -1.7 -10.0°
Drops below altitude 10° 11:21:55 10° 36° (NE) 1,506 0.2 -9.6°
Sets 11:24:22 0° 53° (NE) 2,375 2.1 -9.2°
